Regional Weather Roundup
Issued by NWS

Home | Current Version | Previous Version | Graphics & Text | Print | Product List | Glossary On
Versions: 1 2 3 4 5 6 7 8 9 10 11 12 13 14 15 16 17 18 19 20 21 22 23 24 25 26 27 28 29 30 31 32 33 34 35 36 37 38 39 40 41 42 43 44 45 46 47 48 49 50
000
ASUS44 KMEG 201700
RWRTN
TENNESSEE HOURLY STATE WEATHER ROUNDUP
NATIONAL WEATHER SERVICE MEMPHIS TN
1200 PM CDT FRI APR 20 2018

TNZ002-004-019-021-049-052-054-088>092-201800-
WEST TENNESSEE

CITY           SKY/WX    TMP DP  RH WIND       PRES   REMARKS
MEMPHIS INTL   FAIR      61  34  36 NE8       30.38F
NWS MEMPHIS      N/A     60 N/A N/A MISG        N/A
JACKSON        FAIR      62  32  32 VRB5      30.41F
DYERSBURG      FAIR      59  31  34 NE9       30.43F
$$

TNZ008-025-027-028-033-062-065-066-201800-
NORTH MIDDLE TENNESSEE

CITY           SKY/WX    TMP DP  RH WIND       PRES   REMARKS
NASHVILLE      FAIR      61  30  31 NE10G18   30.42F
CLARKSVILLE    FAIR      56  28  34 E13       30.44F
CROSSVILLE     FAIR      56  25  30 N12       30.39F
$$

TNZ061-075-076-078-094-096-097-201800-
SOUTH MIDDLE TENNESSEE

CITY           SKY/WX    TMP DP  RH WIND       PRES   REMARKS
$$

TNZ017-018-042-046-047-201800-
NORTHEAST TENNESSEE

CITY           SKY/WX    TMP DP  RH WIND       PRES   REMARKS
TRI CITIES     FAIR      54  32  43 VRB3      30.40F
$$

TNZ012-013-036-069-073-074-201800-
CENTRAL EAST TENNESSEE

CITY           SKY/WX    TMP DP  RH WIND       PRES   REMARKS
KNOXVILLE      FAIR      58  33  39 N10       30.38F
OAK RIDGE      FAIR      59  32  36 MISG      30.41F
$$

TNZ083-085-099-201800-
SOUTHEAST TENNESSEE

CITY           SKY/WX    TMP DP  RH WIND       PRES   REMARKS
CHATTANOOGA    FAIR      60  32  34 N12       30.38F
$$

SKY/WX REPORTED AS FAIR MEANS FEW OR NO CLOUDS BELOW
12 THOUSAND FEET.




USA.gov is the U.S. government's official web portal to all federal, state and local government web resources and services.